• In Uzbekistan
  • List of Countries
  • For 7 days
  • Water Temperature
  • Satellite Maps
  • Weather Map
  • Weather Widgets
  • user-avatar
    Login

    Hourly Weather Odense

    Today, 23 July, Monday

    Time Temperature Precipitation Wind Pressure Humidity
    00:00 +17°C° 0 mm 4 mps 759 mmHg 89%
    01:00 +15°C° 0 mm 4 mps 759 mmHg 92%
    02:00 +15°C° 0 mm 4 mps 759 mmHg 92%
    03:00 +15°C° 0 mm 4 mps 759 mmHg 93%
    04:00 +15°C° 0 mm 4 mps 759 mmHg 94%
    05:00 +17°C° 0 mm 4 mps 759 mmHg 91%
    06:00 +18°C° 0 mm 4 mps 759 mmHg 88%
    07:00 +19°C° 0 mm 4 mps 759 mmHg 85%
    08:00 +21°C° 0 mm 4 mps 759 mmHg 79%
    09:00 +22°C° 0 mm 4 mps 759 mmHg 74%
    10:00 +25°C° 0 mm 4 mps 760 mmHg 68%
    11:00 +26°C° 0 mm 4 mps 760 mmHg 65%
    12:00 +27°C° 0 mm 4 mps 760 mmHg 61%
    13:00 +28°C° 0 mm 4 mps 760 mmHg 58%
    14:00 +28°C° 0 mm 4 mps 759 mmHg 58%
    15:00 +28°C° 0 mm 4 mps 759 mmHg 59%
    16:00 +28°C° 0 mm 4 mps 759 mmHg 59%
    17:00 +27°C° 0 mm 4 mps 759 mmHg 63%
    18:00 +26°C° 0 mm 5 mps 759 mmHg 66%
    19:00 +25°C° 0 mm 5 mps 760 mmHg 70%
    20:00 +22°C° 0 mm 4 mps 760 mmHg 76%
    21:00 +21°C° 0 mm 4 mps 760 mmHg 82%
    22:00 +19°C° 0 mm 4 mps 760 mmHg 89%
    23:00 +19°C° 0 mm 3 mps 760 mmHg 90%

    Tomorrow, 24 July, Tuesday

    Time Temperature Precipitation Wind Pressure Humidity
    00:00 +18°C° 0 mm 3 mps 760 mmHg 91%
    01:00 +18°C° 0 mm 3 mps 760 mmHg 92%
    02:00 +18°C° 0 mm 3 mps 760 mmHg 92%
    03:00 +18°C° 0 mm 2 mps 760 mmHg 92%
    04:00 +17°C° 0 mm 2 mps 760 mmHg 92%
    05:00 +18°C° 0 mm 2 mps 760 mmHg 88%
    06:00 +19°C° 0 mm 2 mps 760 mmHg 84%
    07:00 +21°C° 0 mm 2 mps 760 mmHg 79%
    08:00 +23°C° 0 mm 2 mps 760 mmHg 74%
    09:00 +24°C° 0 mm 2 mps 761 mmHg 68%
    10:00 +26°C° 0 mm 2 mps 761 mmHg 63%
    11:00 +27°C° 0 mm 2 mps 760 mmHg 60%
    12:00 +28°C° 0 mm 2 mps 760 mmHg 57%
    13:00 +29°C° 0 mm 2 mps 760 mmHg 54%
    14:00 +29°C° 0 mm 2 mps 760 mmHg 53%
    15:00 +29°C° 0 mm 2 mps 760 mmHg 53%
    16:00 +29°C° 0 mm 2 mps 759 mmHg 53%
    17:00 +29°C° 0 mm 2 mps 759 mmHg 56%
    18:00 +28°C° 0 mm 2 mps 759 mmHg 60%
    19:00 +27°C° 0 mm 2 mps 759 mmHg 63%
    20:00 +26°C° 0 mm 2 mps 759 mmHg 68%
    21:00 +24°C° 0 mm 2 mps 760 mmHg 73%
    22:00 +21°C° 0 mm 2 mps 760 mmHg 78%
    23:00 +22°C° 0 mm 1 mps 760 mmHg 80%

    Day after tomorrow, 25 July, Wednesday

    Time Temperature Precipitation Wind Pressure Humidity
    00:00 +21°C° 0 mm 1 mps 760 mmHg 81%
    01:00 +21°C° 0 mm 1 mps 760 mmHg 83%
    02:00 +21°C° 0 mm 1 mps 760 mmHg 83%
    03:00 +21°C° 0 mm 1 mps 760 mmHg 83%
    04:00 +21°C° 0 mm 1 mps 760 mmHg 83%
    05:00 +22°C° 0 mm 1 mps 760 mmHg 78%
    06:00 +23°C° 0 mm 1 mps 760 mmHg 73%
    07:00 +24°C° 0 mm 1 mps 760 mmHg 69%
    08:00 +26°C° 0 mm 1 mps 760 mmHg 64%
    09:00 +27°C° 0 mm 1 mps 761 mmHg 60%
    10:00 +28°C° 0 mm 1 mps 761 mmHg 56%
    11:00 +29°C° 0 mm 2 mps 761 mmHg 54%
    12:00 +30°C° 0 mm 2 mps 760 mmHg 53%
    13:00 +30°C° 0 mm 3 mps 760 mmHg 51%
    14:00 +30°C° 0 mm 3 mps 760 mmHg 51%
    15:00 +30°C° 0 mm 2 mps 760 mmHg 51%
    16:00 +30°C° 0 mm 2 mps 760 mmHg 51%
    17:00 +29°C° 0 mm 2 mps 760 mmHg 55%
    18:00 +29°C° 0 mm 2 mps 760 mmHg 59%
    19:00 +28°C° 0 mm 2 mps 760 mmHg 62%
    20:00 +26°C° 0 mm 2 mps 760 mmHg 66%
    21:00 +25°C° 0 mm 2 mps 761 mmHg 70%
    22:00 +23°C° 0 mm 2 mps 761 mmHg 74%
    23:00 +23°C° 0.1 mm 2 mps 761 mmHg 75%

    26 July, Thursday

    Time Temperature Precipitation Wind Pressure Humidity
    00:00 +23°C° 0.1 mm 2 mps 761 mmHg 76%
    01:00 +22°C° 0.1 mm 1 mps 761 mmHg 78%
    02:00 +22°C° 0 mm 1 mps 761 mmHg 79%
    03:00 +21°C° 0 mm 1 mps 761 mmHg 81%
    04:00 +21°C° 0 mm 1 mps 761 mmHg 83%
    05:00 +22°C° 0 mm 1 mps 761 mmHg 78%
    06:00 +22°C° 0 mm 0 mps 762 mmHg 74%
    07:00 +23°C° 0 mm 0 mps 762 mmHg 69%
    08:00 +26°C° 0 mm 1 mps 762 mmHg 65%
    09:00 +27°C° 0 mm 1 mps 762 mmHg 60%
    10:00 +29°C° 0 mm 1 mps 762 mmHg 56%
    11:00 +29°C° 0 mm 1 mps 762 mmHg 54%
    12:00 +30°C° 0 mm 2 mps 762 mmHg 52%
    13:00 +31°C° 0 mm 2 mps 762 mmHg 49%
    14:00 +31°C° 0 mm 2 mps 762 mmHg 49%
    15:00 +31°C° 0 mm 2 mps 762 mmHg 48%
    16:00 +31°C° 0 mm 2 mps 761 mmHg 48%
    17:00 +30°C° 0 mm 2 mps 761 mmHg 51%
    18:00 +29°C° 0 mm 2 mps 761 mmHg 55%
    19:00 +29°C° 0 mm 3 mps 761 mmHg 58%
    20:00 +27°C° 0 mm 3 mps 761 mmHg 62%
    21:00 +26°C° 0 mm 3 mps 762 mmHg 65%
    22:00 +24°C° 0 mm 3 mps 762 mmHg 68%
    23:00 +24°C° 0 mm 3 mps 762 mmHg 70%

    27 July, Friday

    Time Temperature Precipitation Wind Pressure Humidity
    00:00 +22°C° 0 mm 3 mps 762 mmHg 71%
    01:00 +22°C° 0 mm 3 mps 762 mmHg 72%
    02:00 +23°C° 0 mm 2 mps 762 mmHg 73%
    03:00 +21°C° 0 mm 2 mps 762 mmHg 74%
    04:00 +21°C° 0 mm 2 mps 762 mmHg 75%
    05:00 +23°C° 0 mm 2 mps 762 mmHg 72%
    06:00 +24°C° 0 mm 2 mps 762 mmHg 69%
    07:00 +25°C° 0 mm 2 mps 762 mmHg 66%
    08:00 +27°C° 0 mm 2 mps 761 mmHg 61%
    09:00 +28°C° 0 mm 2 mps 761 mmHg 57%
    10:00 +29°C° 0 mm 2 mps 761 mmHg 52%
    11:00 +30°C° 0 mm 2 mps 761 mmHg 50%
    12:00 +31°C° 0 mm 2 mps 761 mmHg 49%
    13:00 +31°C° 0 mm 3 mps 761 mmHg 47%
    14:00 +31°C° 0 mm 3 mps 760 mmHg 47%
    15:00 +31°C° 0 mm 3 mps 760 mmHg 48%
    16:00 +31°C° 0 mm 3 mps 760 mmHg 48%
    17:00 +30°C° 0 mm 3 mps 760 mmHg 52%
    18:00 +29°C° 0 mm 3 mps 760 mmHg 56%
    19:00 +28°C° 0 mm 2 mps 759 mmHg 60%
    20:00 +27°C° 0 mm 2 mps 759 mmHg 64%
    21:00 +25°C° 0 mm 2 mps 759 mmHg 69%
    22:00 +23°C° 0 mm 2 mps 759 mmHg 73%
    23:00 +23°C° 0 mm 2 mps 759 mmHg 75%

    28 July, Saturday

    Time Temperature Precipitation Wind Pressure Humidity
    00:00 +23°C° 0 mm 2 mps 759 mmHg 78%
    01:00 +21°C° 0 mm 2 mps 759 mmHg 80%
    02:00 +21°C° 0 mm 2 mps 759 mmHg 83%
    03:00 +21°C° 0 mm 2 mps 758 mmHg 86%
    04:00 +20°C° 0 mm 2 mps 758 mmHg 89%
    05:00 +21°C° 0 mm 2 mps 758 mmHg 86%
    06:00 +22°C° 0 mm 3 mps 758 mmHg 83%
    07:00 +24°C° 0 mm 3 mps 758 mmHg 80%
    08:00 +25°C° 0 mm 3 mps 758 mmHg 74%
    09:00 +26°C° 0 mm 3 mps 758 mmHg 69%
    10:00 +28°C° 0 mm 3 mps 758 mmHg 63%
    11:00 +28°C° 0 mm 3 mps 758 mmHg 60%
    12:00 +29°C° 0 mm 3 mps 758 mmHg 58%
    13:00 +30°C° 0 mm 3 mps 758 mmHg 55%
    14:00 +30°C° 0 mm 3 mps 758 mmHg 54%
    15:00 +30°C° 0 mm 2 mps 758 mmHg 53%
    16:00 +30°C° 0 mm 2 mps 758 mmHg 52%
    17:00 +29°C° 0 mm 2 mps 758 mmHg 55%
    18:00 +29°C° 0 mm 2 mps 758 mmHg 58%
    19:00 +28°C° 0 mm 2 mps 758 mmHg 61%
    20:00 +26°C° 0.1 mm 2 mps 758 mmHg 68%
    21:00 +25°C° 0.1 mm 2 mps 759 mmHg 74%
    22:00 +23°C° 0.1 mm 2 mps 759 mmHg 80%
    23:00 +21°C° 0.1 mm 2 mps 759 mmHg 83%
    Show more